User: anonymous   Login
Location: Unspecified
(0.0000°N, 0.0000°E)
Time: 08:48:40
(UTC+00:00)
Language:

LAPAN-TUBSAT - Orbit

View from above orbital plane
View from above orbital plane
View from above satellite
View from above satellite

Ground track
Ground track

The orbit data is extracted from the following two-line orbital elements,

1 29709U 07001A   19345.88566304 +.00000016 +00000-0 +85599-5 0  9995
2 29709 097.8332 304.1330 0013411 013.3912 346.7660 14.82198686698439
Epoch (UTC): 11 December 2019 21:15:21
Eccentricity: 0.0013411
inclination: 97.8332°
perigee height: 613 km
apogee height: 632 km
right ascension of ascending node: 304.1330°
argument of perigee: 13.3912°
revolutions per day: 14.82198686
mean anomaly at epoch: 346.7660°
orbit number at epoch: 69843

The dashed part of the orbit path shows where the satellite is in the earth's shadow,  

DLR